Weather History for Pittsburg, KS

Change the Weather History Date:

Tuesday, August 6, 2013

  Actual Average (KJLN) Record (KJLN)
Temperature  
Mean Temperature 82 °F 81 °F  
Max Temperature 91 °F 92 °F 105 °F (1956)
Min Temperature 73 °F 70 °F 56 °F (1948)
Degree Days  
Heating Degree Days 0 0  
Month to date heating degree days 0  
Since 1 June heating degree days 5  
Since 1 July heating degree days 0  
Cooling Degree Days 17 16  
Month to date cooling degree days 96  
Year to date cooling degree days 1067  
Since 1 June cooling degree days 887  
Growing Degree Days 32 (Base 50)    
Moisture  
Dew Point 80 °F    
Average Humidity 92    
Maximum Humidity 100    
Minimum Humidity 60    
Precipitation  
Precipitation 0.44 in 0.10 in 1.37 in (2013)
Month to date precipitation 0.59  
Year to date precipitation 28.21  
Sea Level Pressure  
Sea Level Pressure 29.86 in    
Wind  
Wind Speed 7 mph (South)    
Max Wind Speed 22 mph    
Max Gust Speed 33 mph    
Visibility 10 miles    
Events Thunderstorm    
T = Trace of Precipitation, MM = Missing Value Source: NWS Daily Summary

Daily Weather History Graph

Daily Weather History Graph

Search for Another Location

Airport:

Trip Planner

Search our weather history database for the weather conditions in past years. The results will help you decide how hot, cold, wet, or windy it might be!

Date:

Astronomy

Aug. 06, 2013 Rise Set
Actual Time 6:27 AM CDT 8:21 PM CDT
Civil Twilight 5:59 AM CDT 8:49 PM CDT
Nautical Twilight 5:24 AM CDT 9:24 PM CDT
Astronomical Twilight 4:47 AM CDT 10:01 PM CDT
Moon 6:18 AM CDT (8/6) 7:58 PM CDT (8/6)
Length of Visible Light 14h 50m
Length of Day
13h 53m
Waning Crescent, 0% of the Moon is Illuminated
Aug 6
Waning Crescent
Aug 6
New
Aug 14
First Quarter
Aug 20
Full
Aug 28
Last Quarter

Hourly Weather History & Observations

Time (CDT) Temp. Heat Index Dew Point Humidity Pressure Visibility Wind Dir Wind Speed Gust Speed Precip Events Conditions
12:15 AM 82.4 °F 96.1 °F 82.4 °F 100% 29.85 in 10.0 mi South 5.8 mph - N/A   Clear
12:35 AM 82.4 °F 96.1 °F 82.4 °F 100% 29.84 in 10.0 mi South 5.8 mph - N/A   Scattered Clouds
12:55 AM 82.4 °F 96.1 °F 82.4 °F 100% 29.84 in 10.0 mi SSW 6.9 mph - N/A   Scattered Clouds
1:15 AM 82.4 °F 96.1 °F 82.4 °F 100% 29.84 in 10.0 mi SSW 9.2 mph - N/A Thunderstorm Scattered Clouds
1:35 AM 80.2 °F 87.8 °F 79.9 °F 99% 29.88 in 10.0 mi West 19.6 mph 33.4 mph N/A Thunderstorm Thunderstorm
1:55 AM 76.1 °F - 75.9 °F 99% 29.91 in 10.0 mi West 21.9 mph 31.1 mph 0.02 in Thunderstorm Thunderstorm
2:15 AM 76.1 °F - 75.9 °F 99% 29.92 in 5.0 mi NW 18.4 mph 25.3 mph 0.11 in Thunderstorm Thunderstorm
2:35 AM 76.1 °F - - N/A% 29.93 in 7.0 mi WNW 10.4 mph 19.6 mph 0.18 in   Overcast
2:55 AM 74.7 °F - - N/A% 29.93 in 10.0 mi WNW 8.1 mph 17.3 mph 0.23 in Thunderstorm Overcast
3:15 AM 73.6 °F - 73.8 °F 100% 29.92 in 7.0 mi WNW 8.1 mph - 0.03 in Thunderstorm Thunderstorm
3:35 AM 73.4 °F - - N/A% 29.90 in 7.0 mi WNW 4.6 mph - 0.06 in Thunderstorm Thunderstorm
3:55 AM 73.4 °F - - N/A% 29.88 in 7.0 mi Calm Calm - 0.09 in Thunderstorm Thunderstorm
4:15 AM 73.4 °F - - N/A% 29.87 in 10.0 mi SE 3.5 mph - 0.02 in Thunderstorm Mostly Cloudy
4:35 AM 73.4 °F - - N/A% 29.86 in 10.0 mi SE 4.6 mph - 0.04 in   Scattered Clouds
4:55 AM 73.4 °F - - N/A% 29.86 in 10.0 mi SE 3.5 mph - 0.05 in   Scattered Clouds
5:15 AM 73.4 °F - - N/A% 29.85 in 10.0 mi ESE 3.5 mph - 0.01 in   Scattered Clouds
5:35 AM 73.4 °F - - N/A% 29.85 in 10.0 mi SE 3.5 mph - 0.02 in   Scattered Clouds
5:55 AM 73.4 °F - - N/A% 29.86 in 10.0 mi Calm Calm - 0.02 in   Scattered Clouds
6:15 AM 73.4 °F - - N/A% 29.85 in 10.0 mi Calm Calm - N/A   Clear
6:35 AM 73.4 °F - - N/A% 29.85 in 10.0 mi Calm Calm - N/A   Clear
6:55 AM 73.4 °F - - N/A% 29.85 in 10.0 mi Calm Calm - N/A   Clear
7:15 AM 73.4 °F - - N/A% 29.85 in 7.0 mi Calm Calm - N/A   Clear
7:35 AM 74.3 °F - - N/A% 29.86 in 10.0 mi Calm Calm - N/A   Clear
7:55 AM 76.1 °F - - N/A% 29.87 in 10.0 mi Calm Calm - N/A   Clear
8:15 AM 76.1 °F - - N/A% 29.87 in 10.0 mi SSE 3.5 mph - N/A   Clear
8:35 AM 76.1 °F - - N/A% 29.87 in 10.0 mi South 3.5 mph - N/A   Clear
8:55 AM 76.1 °F - - N/A% 29.88 in 10.0 mi South 4.6 mph - N/A   Clear
9:15 AM 76.1 °F - - N/A% 29.89 in 10.0 mi South 4.6 mph - N/A   Clear
9:35 AM 76.1 °F - - N/A% 29.90 in 10.0 mi SSE 3.5 mph - N/A   Clear
9:55 AM 76.3 °F - 76.3 °F 100% 29.91 in 10.0 mi South 3.5 mph - N/A   Clear
10:15 AM 77.2 °F - 77.5 °F 100% 29.91 in 7.0 mi SE 8.1 mph - N/A   Scattered Clouds
10:35 AM 76.3 °F - - N/A% 29.90 in 10.0 mi ESE 10.4 mph - N/A   Scattered Clouds
10:55 AM 77.7 °F - - N/A% 29.91 in 10.0 mi ESE 6.9 mph - N/A   Clear
11:15 AM 78.4 °F - 79.0 °F 100% 29.91 in 4.0 mi SE 9.2 mph - 0.01 in   Mostly Cloudy
11:35 AM 78.4 °F - - N/A% 29.90 in 10.0 mi SE 13.8 mph - 0.02 in   Scattered Clouds
11:55 AM 78.4 °F - 78.8 °F 100% 29.89 in 10.0 mi SSE 12.7 mph 17.3 mph 0.02 in   Clear
12:15 PM 78.8 °F - 79.2 °F 100% 29.89 in 10.0 mi SSE 11.5 mph - N/A   Clear
12:35 PM 81.0 °F 90.6 °F 81.0 °F 100% 29.90 in 10.0 mi SSE 9.2 mph - 0.01 in   Clear
12:55 PM 81.0 °F 90.4 °F 80.6 °F 99% 29.89 in 10.0 mi SSE 11.5 mph - 0.01 in   Clear
1:15 PM 81.0 °F 90.4 °F 80.6 °F 99% 29.88 in 10.0 mi SE 5.8 mph - N/A   Clear
1:35 PM 81.0 °F 90.6 °F 81.0 °F 100% 29.88 in 10.0 mi South 8.1 mph - N/A   Clear
1:55 PM 80.8 °F 90.0 °F 81.0 °F 100% 29.88 in 10.0 mi SE 5.8 mph - N/A   Scattered Clouds
2:15 PM 79.7 °F - 79.7 °F 100% 29.87 in 10.0 mi SSE 6.9 mph - N/A   Scattered Clouds
2:35 PM 81.0 °F 90.6 °F 81.1 °F 100% 29.87 in 10.0 mi SSE 6.9 mph - N/A   Clear
2:55 PM 82.4 °F 95.4 °F 81.9 °F 98% 29.87 in 10.0 mi SSE 6.9 mph - N/A   Clear
3:15 PM 83.5 °F 97.5 °F 81.1 °F 93% 29.86 in 10.0 mi South 5.8 mph - N/A   Clear
3:35 PM 82.8 °F 96.4 °F 81.7 °F 97% 29.85 in 10.0 mi South 5.8 mph - N/A   Clear
3:55 PM 82.6 °F 96.8 °F 82.6 °F 100% 29.84 in 10.0 mi South 6.9 mph - N/A   Clear
4:15 PM 84.2 °F 102.0 °F 83.3 °F 97% 29.84 in 10.0 mi South 6.9 mph - N/A   Clear
4:35 PM 86.9 °F 106.2 °F 82.2 °F 86% 29.84 in 10.0 mi South 8.1 mph - N/A   Clear
4:55 PM 90.5 °F 107.4 °F 79.7 °F 70% 29.83 in 10.0 mi South 15.0 mph 19.6 mph N/A   Clear
5:15 PM 91.0 °F 104.2 °F 76.6 °F 63% 29.83 in 10.0 mi SSW 13.8 mph 19.6 mph N/A   Clear
5:35 PM 91.0 °F 102.2 °F 75.4 °F 60% 29.82 in 10.0 mi South 9.2 mph - N/A   Clear
5:55 PM 91.0 °F 103.5 °F 76.5 °F 62% 29.81 in 10.0 mi South 6.9 mph - N/A   Clear
6:15 PM 91.0 °F 106.2 °F 78.1 °F 66% 29.81 in 10.0 mi SSW 8.1 mph - N/A   Clear
6:35 PM 91.0 °F 104.8 °F 77.5 °F 64% 29.80 in 10.0 mi South 6.9 mph - N/A   Clear
6:55 PM 89.8 °F 104.0 °F 77.9 °F 68% 29.80 in 10.0 mi South 5.8 mph - N/A   Clear
7:15 PM 88.7 °F 102.2 °F 77.9 °F 70% 29.80 in 10.0 mi South 4.6 mph - N/A   Clear
7:35 PM 87.4 °F 103.2 °F 79.9 °F 78% 29.80 in 10.0 mi South 3.5 mph - N/A   Clear
7:55 PM 85.3 °F 99.5 °F 79.9 °F 84% 29.80 in 10.0 mi Calm Calm - N/A   Clear
8:15 PM 84.0 °F 98.1 °F 80.8 °F 90% 29.80 in 10.0 mi Calm Calm - N/A   Clear
8:35 PM 82.8 °F 97.2 °F 82.6 °F 99% 29.80 in 10.0 mi Calm Calm - N/A   Clear
8:55 PM 81.5 °F - - N/A% 29.80 in 10.0 mi Calm Calm - N/A   Clear
9:15 PM 81.0 °F - - N/A% 29.80 in 10.0 mi Calm Calm - N/A   Clear
9:35 PM 81.0 °F 90.6 °F 81.1 °F 100% 29.82 in 10.0 mi Calm Calm - N/A   Clear
9:55 PM 81.0 °F 90.6 °F 81.1 °F 100% 29.82 in 10.0 mi Calm Calm - N/A   Clear
10:15 PM 81.0 °F 90.6 °F 81.1 °F 100% 29.83 in 10.0 mi Calm Calm - N/A   Clear
10:35 PM 81.0 °F 90.6 °F 81.1 °F 100% 29.83 in 10.0 mi Calm Calm - N/A   Clear
10:55 PM 81.0 °F 90.6 °F 81.1 °F 100% 29.82 in 10.0 mi SE 3.5 mph - N/A   Clear
11:15 PM 81.0 °F 90.6 °F 81.1 °F 100% 29.82 in 10.0 mi South 4.6 mph - N/A   Clear
11:35 PM 81.0 °F 90.6 °F 81.1 °F 100% 29.84 in 10.0 mi South 3.5 mph - N/A   Clear
11:55 PM 81.0 °F 90.6 °F 81.1 °F 100% 29.84 in 10.0 mi South 3.5 mph - N/A   Clear